{"data":{"norad_id":58010,"epoch":"2026-09-20T09:17:53.509632Z","epoch_age_seconds":147289,"freshness":"FRESH","line1":"1 58010U 23153V   26263.38742488 -.00000327  00000+0 -23401-5 0  9999","line2":"2 58010  43.0066  47.4183 0001707 267.9593  92.1063 15.27572753164576","mean_motion":15.27572753,"eccentricity":0.0001707,"inclination_deg":43.0066,"raan_deg":47.4183,"arg_perigee_deg":267.9593,"mean_anomaly_deg":92.1063,"bstar":-2.3401e-6,"rev_number":16457,"period_min":94.267195927132,"perigee_km":481.89958807972,"apogee_km":484.24200442136,"semimajor_km":6861.2077962505,"source":"CELESTRAK","updated_at":"2026-09-21T09:00:33.756750Z"}}